Regional Weather Roundup
Issued by NWS Charleston, WV

Home | Current Version | Previous Version | Graphics & Text | Print | Product List | Glossary On
Versions: 1 2 3 4 5 6 7 8 9 10 11 12 13 14 15 16 17 18 19 20 21 22 23 24 25 26 27
000
ASUS41 KRLX 291810
RWRRLX
West Virginia Regional Weather Roundup
National Weather Service Charleston WV
200 PM EDT FRI JUL 29 2016

Note: "fair" indicates few or no clouds below 12,000 feet with no
significant weather and/or obstructions to visibility.

WVZ003-291900-
Northern Panhandle of West Virginia

CITY           SKY/WX    TMP DP  RH WIND       PRES   REMARKS
WHEELING         N/A     82  64  54 CALM      29.97F
$$

WVZ009-291900-
Northwest West Virginia

CITY           SKY/WX    TMP DP  RH WIND       PRES   REMARKS
PARKERSBURG    PTSUNNY   81  71  71 VRB3      29.99F
$$

WVZ006-291900-
Western West Virginia

CITY           SKY/WX    TMP DP  RH WIND       PRES   REMARKS
HUNTINGTON     PTSUNNY   80  72  76 S5        29.96F
$$

WVZ015-291900-
West Central West Virginia

CITY           SKY/WX    TMP DP  RH WIND       PRES   REMARKS
CHARLESTON       N/A     83  69  62 CALM      29.97F
$$

WVZ022-031-291900-
North Central West Virginia

CITY           SKY/WX    TMP DP  RH WIND       PRES   REMARKS
CLARKSBURG       N/A     80  66  62 SW8       29.97F
MORGANTOWN     PTSUNNY   80  66  62 VRB3      29.98S
$$

WVZ025-035-042-045-291900-
Southern West Virginia

CITY           SKY/WX    TMP DP  RH WIND       PRES   REMARKS
BECKLEY        PTSUNNY   77  64  64 NW8       30.05F
LOGAN          PTSUNNY   79  72  78 NW5G12    30.00F
BLUEFIELD      PTSUNNY   74  65  73 W9        30.08F
LEWISBURG      CLOUDY    78  64  61 NW6       30.03S
$$

WVZ047-291900-
Northern Mountains of West Virginia

CITY           SKY/WX    TMP DP  RH WIND       PRES   REMARKS
ELKINS         CLOUDY    77  64  64 CALM      30.02F
$$

WVZ052-291900-
Eastern Panhandle of West Virginia

CITY           SKY/WX    TMP DP  RH WIND       PRES   REMARKS
MARTINSBURG      N/A     86  68  54 NW9       29.90S
PETERSBURG     PTSUNNY   83  71  66 CALM      29.95S
$$




USA.gov is the U.S. government's official web portal to all federal, state and local government web resources and services.